Regional Weather Roundup
Issued by NWS

Home | Current Version | Previous Version | Graphics & Text | Print | Product List | Glossary On
Versions: 1 2 3 4 5 6 7 8 9 10 11 12 13 14 15 16 17 18 19 20 21 22 23 24 25 26 27 28 29 30 31 32 33 34 35 36 37 38 39 40 41 42 43 44 45 46 47 48 49 50
000
ASUS45 KBOI 281010
RWRID
WEATHER ROUNDUP FOR IDAHO
NATIONAL WEATHER SERVICE BOISE ID
400 AM MDT SAT MAR 28 2015

NOTE: "FAIR" INDICATES FEW OR NO CLOUDS BELOW 12000 FEET
WITH NO SIGNIFICANT WEATHER AND/OR OBSTRUCTIONS TO VISIBILITY

IDZ012-014-281100-
SOUTHWEST IDAHO


CITY           SKY/WX    TMP DP  RH WIND       PRES   REMARKS
BOISE          CLEAR     56  39  53 E3        29.98R
CALDWELL       CLEAR     46  36  66 SE3       29.98R
MOUNTAIN HOME  CLEAR     46  38  75 E6        29.98R
$$

IDZ016-017-281100-
SOUTHCENTRAL IDAHO


CITY           SKY/WX    TMP DP  RH WIND       PRES   REMARKS
BURLEY         CLEAR     56  29  35 S16       30.01F
JEROME         CLEAR     50  32  50 SE6       30.01F
TWIN FALLS     CLEAR     57  30  35 S18       30.00F
$$

IDZ019>023-281100-
SOUTHEAST IDAHO


CITY           SKY/WX    TMP DP  RH WIND       PRES   REMARKS
IDAHO FALLS    PTCLDY    48  33  56 CALM      30.05F
POCATELLO      CLEAR     52  29  41 CALM      30.04F
REXBURG        MOCLDY    38  32  79 E6        30.07F WCI  33
$$

IDZ006-010-011-018-031-032-281100-
CENTRAL IDAHO MOUNTAINS


CITY           SKY/WX    TMP DP  RH WIND       PRES   REMARKS
MCCALL         PTCLDY    37  35  92 E5        29.97S WCI  33
HAILEY         CLEAR     41  34  75 NW8       30.09F
STANLEY          N/A     33  27  78 VRB5      30.07F WCI  29
SALMON         MOCLDY   N/A N/A N/A SE3       29.93F
CHALLIS        CLEAR     42  31  64 CALM      29.99F
$$

IDZ002-004-006-007-026-281100-
NORTHERN IDAHO


CITY           SKY/WX    TMP DP  RH WIND       PRES   REMARKS
LEWISTON       CLOUDY    58  43  57 W23G33    29.94R
LOWELL           N/A     47  45  93 N5        29.91R
COEUR D`ALENE  CLOUDY    50  46  87 SW12      29.88F
MULLAN PASS    LGT RAIN  39  39 100 VRB7      29.86F VSB 3/4 WCI  34
$$



USA.gov is the U.S. government's official web portal to all federal, state and local government web resources and services.